KI6IKQ Weather Reports


Display with metric or nautical units.
time (UTC)temp
F
wind
direction
speed
MPH
gust
MPH
rain 1hr
in
rain 24hr
in
rain mn
in
humidity
%
barometer
mb
20260510200024 81 310 4.0 10.0 0.00 0.00 0.00 49 1012.9
20260510195424 80 308 3.0 11.0 0.00 0.00 0.00 50 1013.0
20260510194524 80 309 3.0 9.0 0.00 0.00 0.00 51 1013.0
20260510193603 80 309 3.0 9.0 0.00 0.00 0.00 51 1013.1
20260510192703 79 311 3.0 8.0 0.00 0.00 0.00 51 1013.2
20260510191803 78 301 3.0 8.0 0.00 0.00 0.00 52 1013.2
20260510190903 78 287 3.0 8.0 0.00 0.00 0.00 50 1013.3
20260510190003 78 287 3.0 7.0 0.00 0.00 0.00 50 1013.3
20260510185424 78 308 3.0 8.0 0.00 0.00 0.00 53 1013.5
20260510184503 77 292 3.0 8.0 0.00 0.00 0.00 53 1013.4
20260510183603 77 285 2.0 7.0 0.00 0.00 0.00 52 1013.5
20260510182703 76 292 3.0 8.0 0.00 0.00 0.00 54 1013.5
20260510181803 75 294 2.0 7.0 0.00 0.00 0.00 55 1013.5
20260510180903 75 296 2.0 9.0 0.00 0.00 0.00 54 1013.6
20260510180003 74 302 3.0 9.0 0.00 0.00 0.00 55 1013.5
20260510175403 74 305 3.0 9.0 0.00 0.00 0.00 56 1013.6
20260510174503 73 317 2.0 6.0 0.00 0.00 0.00 57 1013.6
20260510173603 72 301 3.0 9.0 0.00 0.00 0.00 58 1013.6
20260510172703 72 310 3.0 9.0 0.00 0.00 0.00 60 1013.5
20260510171803 71 294 2.0 7.0 0.00 0.00 0.00 61 1013.5
20260510170903 70 270 3.0 9.0 0.00 0.00 0.00 60 1013.5
20260510170003 70 287 3.0 9.0 0.00 0.00 0.00 61 1013.5
20260510165403 70 281 3.0 10.0 0.00 0.00 0.00 62 1013.6
20260510164503 69 306 3.0 9.0 0.00 0.00 0.00 64 1013.4
20260510163603 68 295 3.0 10.0 0.00 0.00 0.00 66 1013.4
20260510162703 67 266 2.0 10.0 0.00 0.00 0.00 66 1013.4
20260510161803 67 270 3.0 8.0 0.00 0.00 0.00 67 1013.5
20260510160903 67 278 3.0 10.0 0.00 0.00 0.00 67 1013.3
20260510160003 66 296 3.0 8.0 0.00 0.00 0.00 69 1013.2
20260510155403 66 280 3.0 10.0 0.00 0.00 0.00 69 1013.2
20260510154503 65 301 3.0 10.0 0.00 0.00 0.00 70 1013.4
20260510153603 64 299 3.0 11.0 0.00 0.00 0.00 72 1013.2
20260510152703 64 307 4.0 11.0 0.00 0.00 0.00 73 1013.2
20260510151824 63 277 3.0 9.0 0.00 0.00 0.00 75 1013.3
20260510150924 62 284 3.0 9.0 0.00 0.00 0.00 76 1013.2
20260510150024 61 283 3.0 8.0 0.00 0.00 0.00 78 1013.2
20260510145424 61 276 2.0 7.0 0.00 0.00 0.00 79 1013.2
20260510144525 60 288 3.0 8.0 0.00 0.00 0.00 80 1013.0
20260510143603 59 294 2.0 8.0 0.00 0.00 0.00 82 1013.0
20260510142703 58 283 2.0 8.0 0.00 0.00 0.00 83 1013.0
20260510141803 58 283 2.0 7.0 0.00 0.00 0.00 84 1013.0
20260510140903 57 274 2.0 7.0 0.00 0.00 0.00 85 1012.7
20260510140004 56 283 2.0 6.0 0.00 0.00 0.00 85 1012.6
20260510135404 56 284 1.0 6.0 0.00 0.00 0.00 86 1012.6
20260510134503 56 275 1.0 4.0 0.00 0.00 0.00 86 1012.6
20260510133603 55 268 1.0 4.0 0.00 0.00 0.00 86 1012.4
20260510132703 55 276 1.0 4.0 0.00 0.00 0.00 86 1012.2
20260510131803 55 275 1.0 4.0 0.00 0.00 0.00 86 1012.2
20260510130904 55 277 1.0 3.0 0.00 0.00 0.00 86 1012.1
20260510130004 55 287 1.0 4.0 0.00 0.00 0.00 86 1012.1
20260510125404 55 287 1.0 3.0 0.00 0.00 0.00 85 1012.2
20260510124524 55 285 1.0 3.0 0.00 0.00 0.00 85 1012.2
20260510123624 55 276 1.0 4.0 0.00 0.00 0.00 85 1012.1
20260510122724 55 277 1.0 4.0 0.00 0.00 0.00 85 1012.0
20260510121824 56 282 1.0 5.0 0.00 0.00 0.00 85 1012.1
20260510120924 56 271 1.0 4.0 0.00 0.00 0.00 85 1012.2
20260510120003 56 281 1.0 4.0 0.00 0.00 0.00 85 1012.1
20260510115403 56 274 1.0 3.0 0.00 0.00 0.00 84 1012.1
20260510114503 56 276 1.0 4.0 0.00 0.00 0.00 84 1012.2
20260510113603 56 289 1.0 4.0 0.00 0.00 0.00 84 1012.2
20260510112703 56 298 1.0 4.0 0.00 0.00 0.00 84 1012.1
20260510111803 56 295 1.0 4.0 0.00 0.00 0.00 84 1012.1
20260510110903 56 280 1.0 5.0 0.00 0.00 0.00 84 1012.1
20260510110003 56 281 1.0 4.0 0.00 0.00 0.00 83 1011.9
20260510105403 56 303 1.0 4.0 0.00 0.00 0.00 83 1011.9
20260510104503 57 295 1.0 4.0 0.00 0.00 0.00 83 1011.7
20260510103603 57 294 1.0 4.0 0.00 0.00 0.00 83 1011.7
20260510102703 57 296 1.0 6.0 0.00 0.00 0.00 83 1011.8
20260510101803 57 297 1.0 4.0 0.00 0.00 0.00 82 1011.8
20260510100903 57 305 2.0 7.0 0.00 0.00 0.00 82 1011.8
20260510100003 57 296 2.0 7.0 0.00 0.00 0.00 82 1011.8
20260510095403 57 301 2.0 6.0 0.00 0.00 0.00 82 1011.9
20260510094503 57 299 2.0 6.0 0.00 0.00 0.00 82 1011.8
20260510093603 57 312 2.0 6.0 0.00 0.00 0.00 82 1011.9
20260510092703 57 306 2.0 5.0 0.00 0.00 0.00 81 1011.9
20260510091803 58 308 2.0 5.0 0.00 0.00 0.00 81 1011.9
20260510090903 58 308 2.0 5.0 0.00 0.00 0.00 81 1011.8
20260510090003 58 319 2.0 4.0 0.00 0.00 0.00 80 1011.6
20260510085403 58 323 1.0 4.0 0.00 0.00 0.00 80 1011.7
20260510084503 58 285 1.0 4.0 0.00 0.00 0.00 80 1011.8
20260510083605 58 306 1.0 3.0 0.00 0.00 0.00 79 1011.8
20260510082724 58 315 1.0 3.0 0.00 0.00 0.00 79 1011.8
20260510081803 59 292 1.0 3.0 0.00 0.00 0.00 78 1011.9
20260510080903 59 299 1.0 6.0 0.00 0.00 0.00 78 1011.9
20260510080003 59 313 1.0 4.0 0.00 0.00 0.00 78 1011.8
20260510075403 59 315 2.0 4.0 0.00 0.00 0.00 78 1011.9
20260510074503 59 301 1.0 4.0 0.00 0.00 0.00 77 1011.7
20260510073603 59 308 2.0 5.0 0.00 0.00 0.00 77 1011.8
20260510072725 60 322 2.0 5.0 0.00 0.00 0.00 76 1011.8
20260510071803 60 318 2.0 5.0 0.00 0.00 0.00 76 1011.8
20260510070903 60 321 2.0 5.0 0.00 0.00 0.00 75 1011.7
20260510070004 60 311 2.0 5.0 0.00 0.00 0.00 74 1011.8
20260510065424 61 328 2.0 5.0 0.00 0.00 0.00 74 1011.8
20260510064503 61 320 1.0 5.0 0.00 0.00 0.00 73 1011.6
20260510063603 61 312 2.0 4.0 0.00 0.00 0.00 72 1011.6
20260510062703 62 292 2.0 4.0 0.00 0.00 0.00 71 1011.6
20260510061803 62 298 1.0 3.0 0.00 0.00 0.00 71 1011.6
20260510060924 62 283 1.0 3.0 0.00 0.00 0.00 70 1011.5
20260510060003 63 281 1.0 3.0 0.00 0.00 0.00 69 1011.4
20260510055403 63 263 1.0 3.0 0.00 0.00 0.00 69 1011.3
20260510054503 63 254 1.0 4.0 0.00 0.00 0.00 68 1011.4
20260510053603 64 271 1.0 2.0 0.00 0.00 0.00 67 1011.3
20260510052703 64 304 1.0 3.0 0.00 0.00 0.00 66 1011.3
20260510051803 65 277 1.0 6.0 0.00 0.00 0.00 65 1011.2
20260510050903 65 245 1.0 3.0 0.00 0.00 0.00 64 1011.3
20260510050003 66 249 1.0 4.0 0.00 0.00 0.00 63 1011.4
20260510045403 66 248 2.0 4.0 0.00 0.00 0.00 62 1011.4
20260510044503 66 254 2.0 4.0 0.00 0.00 0.00 61 1011.3
20260510043603 67 262 2.0 5.0 0.00 0.00 0.00 61 1011.3
20260510042703 68 245 2.0 5.0 0.00 0.00 0.00 61 1011.4
20260510041803 68 244 2.0 4.0 0.00 0.00 0.00 59 1011.2
20260510040903 69 248 1.0 4.0 0.00 0.00 0.00 57 1011.2
20260510040006 69 247 1.0 6.0 0.00 0.00 0.00 57 1011.0
20260510035403 70 248 2.0 6.0 0.00 0.00 0.00 57 1010.9
20260510034503 70 248 2.0 4.0 0.00 0.00 0.00 57 1010.8
20260510033603 71 245 2.0 4.0 0.00 0.00 0.00 56 1010.7
20260510032703 72 248 2.0 5.0 0.00 0.00 0.00 55 1010.6
20260510031803 73 242 2.0 5.0 0.00 0.00 0.00 54 1010.6
20260510030903 74 245 2.0 4.0 0.00 0.00 0.00 53 1010.4
20260510030003 75 237 2.0 9.0 0.00 0.00 0.00 50 1010.3
20260510025403 76 243 2.0 9.0 0.00 0.00 0.00 49 1010.3
20260510024503 77 255 3.0 10.0 0.00 0.00 0.00 49 1010.3
20260510023603 78 254 3.0 9.0 0.00 0.00 0.00 48 1010.3
20260510022703 79 246 3.0 6.0 0.00 0.00 0.00 50 1010.3
20260510021803 79 250 3.0 8.0 0.00 0.00 0.00 49 1010.3
20260510020903 80 253 3.0 8.0 0.00 0.00 0.00 47 1010.4
20260510020003 81 250 3.0 12.0 0.00 0.00 0.00 48 1010.3
20260510015403 82 251 3.0 10.0 0.00 0.00 0.00 47 1010.3
20260510014503 82 260 3.0 9.0 0.00 0.00 0.00 47 1010.3
20260510013603 83 253 4.0 10.0 0.00 0.00 0.00 46 1010.3
20260510012703 84 255 4.0 10.0 0.00 0.00 0.00 45 1010.3
20260510011803 85 263 3.0 9.0 0.00 0.00 0.00 45 1010.3
20260510010903 85 248 3.0 10.0 0.00 0.00 0.00 45 1010.3
20260510010003 86 257 3.0 11.0 0.00 0.00 0.00 44 1010.2
20260510005403 86 264 4.0 11.0 0.00 0.00 0.00 44 1010.3
20260510004503 87 255 4.0 14.0 0.00 0.00 0.00 42 1010.3
20260510003603 88 261 4.0 13.0 0.00 0.00 0.00 41 1010.2
20260510002703 90 286 4.0 10.0 0.00 0.00 0.00 41 1010.2
20260510001803 90 322 4.0 10.0 0.00 0.00 0.00 45 1010.1
20260510000903 90 326 7.0 12.0 0.00 0.00 0.00 43 1010.1
20260510000003 90 324 4.0 11.0 0.00 0.00 0.00 42 1010.1
20260509235403 90 318 5.0 12.0 0.00 0.00 0.00 43 1010.1
20260509234503 90 321 5.0 13.0 0.00 0.00 0.00 41 1010.1
20260509233603 91 320 6.0 13.0 0.00 0.00 0.00 41 1010.2
20260509232703 91 324 6.0 12.0 0.00 0.00 0.00 41 1010.2
20260509231803 91 312 6.0 12.0 0.00 0.00 0.00 41 1010.2
20260509230903 90 333 6.0 13.0 0.00 0.00 0.00 40 1010.4
20260509230003 90 336 6.0 11.0 0.00 0.00 0.00 40 1010.3
20260509225403 90 332 7.0 13.0 0.00 0.00 0.00 38 1010.6
20260509224503 90 321 6.0 13.0 0.00 0.00 0.00 38 1010.6
20260509223603 90 325 5.0 9.0 0.00 0.00 0.00 38 1010.7
20260509222703 90 317 4.0 10.0 0.00 0.00 0.00 38 1011.0
20260509221803 90 320 5.0 13.0 0.00 0.00 0.00 39 1011.1
20260509220903 90 319 6.0 13.0 0.00 0.00 0.00 37 1011.2
20260509220024 89 328 6.0 13.0 0.00 0.00 0.00 38 1011.3
20260509215424 89 327 6.0 13.0 0.00 0.00 0.00 38 1011.3
20260509214503 89 330 5.0 12.0 0.00 0.00 0.00 39 1011.4
20260509213603 89 320 5.0 11.0 0.00 0.00 0.00 40 1011.6
20260509212703 89 316 5.0 11.0 0.00 0.00 0.00 41 1011.6
20260509211803 88 320 5.0 12.0 0.00 0.00 0.00 42 1011.7
20260509210903 88 318 4.0 9.0 0.00 0.00 0.00 42 1011.8
20260509210003 87 330 5.0 11.0 0.00 0.00 0.00 42 1012.0
20260509205403 87 330 5.0 11.0 0.00 0.00 0.00 42 1012.0
20260509204503 87 321 5.0 9.0 0.00 0.00 0.00 42 1012.0
20260509203603 87 323 5.0 12.0 0.00 0.00 0.00 45 1012.1
20260509202703 86 325 5.0 13.0 0.00 0.00 0.00 45 1012.2
20260509201803 86 313 6.0 10.0 0.00 0.00 0.00 47 1012.4
20260509200903 86 323 6.0 13.0 0.00 0.00 0.00 47 1012.4